Flight Information

DEPARTURE
SAN DIEGO/EL CAJON, CA
Elevation:
387
Runways:
9L/27R - 5342x100 - ASPH-G
17/35 - 4145x100 - ASPH-G
9R/27L - 2738x60 - ASPH-G
Active PE Departure:
27L - 27R
Current PE ATIS:
H
Altimeter:
29.90
Remarks:
ATIS:
125.45 619-449-1228
Clearance Delivery:
125.1
Ground:
121.7
Tower:
120.7 123.8
DESTINATION
,
Elevation:
TPA:
1000 (est.)


6744 NM75° True-13° Var61° HDG

Flight Plan:
(click to file on line)

1. Type
2. Aircraft Identification
3. Aircraft Type / Special Equipment
4. True Airspeed
kts
5. Departure Airport
(ICAO code)
6. Arriving Airport
(ICAO code)
7. Cruising Altitude
ft
8. Alternate Airport
(ICAO code)
9. Route of Flight
10. Remarks


00:00:00 Departure ATIS: Destination ATIS:

Clearance Limit:
Route:
Altitude: Expect in minutes
Frequency:
Transponder: (7500 Hijack / 7600 Lost Comms / 7700 Emergency)


KSEE 010315Z AUTO 00000KT 10SM CLR 30/06 A2991 RMK AO2
Time: 2020-10-01T03:15:00Z
1601522519
Winds: calm
Visibility: 10.0 sm
Clouds (AGL): CLR
Temperature: 30.0 C
Dew Point: 6.0 C
Pressure: 29.911417 in Hgbr


Notes:

Data extracted from FAA Digital Chart Supplement. Effective: 0901Z Thursday, Sep 10, 2020 to 0901Z Thursday, Nov 5, 2020
Current ATIS data is provided courtisy of PilotEdge.